TimeEST,TemperatureF,Dew PointF,Humidity,Sea Level PressureIn,VisibilityMPH,Wind Direction,Wind SpeedMPH,Gust SpeedMPH,PrecipitationIn,Events,Conditions,WindDirDegrees,DateUTC
12:53 AM,34.0,17.1,50,30.21,10.0,North,5.8,-,N/A,,Clear,350,2012-12-06 05:53:00
1:53 AM,33.1,16.0,50,30.23,10.0,NNW,8.1,-,N/A,,Clear,330,2012-12-06 06:53:00
2:53 AM,32.0,14.0,48,30.25,10.0,NNW,9.2,19.6,N/A,,Clear,340,2012-12-06 07:53:00
3:53 AM,32.0,15.1,50,30.26,10.0,NNW,9.2,-,N/A,,Clear,340,2012-12-06 08:53:00
4:53 AM,30.9,15.1,52,30.28,10.0,North,5.8,-,N/A,,Clear,350,2012-12-06 09:53:00
5:53 AM,30.0,15.1,54,30.30,10.0,North,5.8,-,N/A,,Clear,350,2012-12-06 10:53:00
6:53 AM,28.9,15.1,56,30.33,10.0,NNW,5.8,-,N/A,,Clear,340,2012-12-06 11:53:00
7:53 AM,30.9,16.0,54,30.35,10.0,NNW,5.8,-,N/A,,Clear,340,2012-12-06 12:53:00
8:53 AM,33.1,16.0,50,30.35,10.0,North,11.5,-,N/A,,Clear,360,2012-12-06 13:53:00
9:53 AM,35.1,17.1,48,30.35,10.0,North,8.1,-,N/A,,Clear,10,2012-12-06 14:53:00
10:53 AM,37.0,16.0,42,30.33,10.0,North,10.4,-,N/A,,Partly Cloudy,10,2012-12-06 15:53:00
11:53 AM,39.9,16.0,38,30.31,10.0,NNE,10.4,-,N/A,,Scattered Clouds,20,2012-12-06 16:53:00
12:53 PM,39.9,16.0,38,30.29,10.0,WNW,3.5,-,N/A,,Scattered Clouds,290,2012-12-06 17:53:00
1:53 PM,42.1,16.0,35,30.28,10.0,Variable,3.5,-,N/A,,Scattered Clouds,0,2012-12-06 18:53:00
2:53 PM,42.1,19.0,40,30.27,10.0,South,3.5,-,N/A,,Scattered Clouds,180,2012-12-06 19:53:00
3:53 PM,39.0,21.9,50,30.27,10.0,Calm,Calm,-,N/A,,Scattered Clouds,0,2012-12-06 20:53:00
4:53 PM,36.0,21.9,57,30.29,10.0,Calm,Calm,-,N/A,,Scattered Clouds,0,2012-12-06 21:53:00
5:53 PM,30.9,19.9,64,30.30,10.0,Calm,Calm,-,N/A,,Scattered Clouds,0,2012-12-06 22:53:00
6:53 PM,28.9,19.9,69,30.30,10.0,Calm,Calm,-,N/A,,Clear,0,2012-12-06 23:53:00
7:53 PM,28.9,21.0,72,30.31,10.0,Calm,Calm,-,N/A,,Clear,0,2012-12-07 00:53:00
8:53 PM,28.9,21.0,72,30.30,10.0,Calm,Calm,-,N/A,,Clear,0,2012-12-07 01:53:00
9:53 PM,27.0,19.9,75,30.30,10.0,Calm,Calm,-,N/A,,Clear,0,2012-12-07 02:53:00
10:53 PM,26.1,19.9,78,30.30,10.0,Calm,Calm,-,N/A,,Clear,0,2012-12-07 03:53:00
11:53 PM,25.0,19.9,81,30.29,10.0,Calm,Calm,-,N/A,,Clear,0,2012-12-07 04:53:00